Date String (YYYY-MM-DD hh:mm:ss) UTC,Instrument flags,absolute air pressure of the measurement (hPa),sample flow rate (lpm),inlet stack bypass flow (lpm),air temperature of the measurement (°C),ambient temperature measured by the external sensor (°C),aerosol sample conditioner tube jacket temperature (°C),OPC LED temperature (°C),internal box temperature (°C),relative humidity of the measurement (%),span deviation,mass concentration of particles derived from Lorenz-Mie calculation of OPC scattering (μg/m³),mass concentration of particles derived from Lorenz-Mie calculation of OPC scattering (μg/m³),mass concentration of particles derived from Lorenz-Mie calculation of OPC scattering (μg/m³)
DateTimeUTC,F1_M11,P_M11,Q1_M11,Q2_M11,T1_M11,T2_M11,T3_M11,T4_M11,T5_M11,U1_M11,ZSPAN_M11,X0_M11,X2_M11,X1_M11
2023-12-01 00:00:00,SystemResetWarning,0821.9,5.00,000.00,023.3,022.2,000.0,031.5,024.7,11.2,0000.0,0010.66,0005.53,0004.93
2023-12-01 00:01:00,SystemResetWarning,0821.9,5.00,000.00,023.3,022.2,000.0,031.5,024.6,11.2,0000.0,0009.97,0005.54,0004.95
2023-12-01 00:02:00,SystemResetWarning,0821.9,5.00,000.00,023.3,022.1,000.0,031.5,024.6,11.2,0000.0,0009.72,0005.54,0004.96
2023-12-01 00:03:00,SystemResetWarning,0821.9,5.00,000.00,023.2,022.1,000.0,031.5,024.6,11.2,0000.0,0009.71,0005.53,0004.96
2023-12-01 00:04:00,SystemResetWarning,0821.9,5.00,000.00,023.2,022.1,000.0,031.5,024.5,11.2,0000.0,0010.05,0005.53,0004.97
2023-12-01 00:05:00,SystemResetWarning,0822.0,5.00,000.00,023.2,022.1,000.0,031.5,024.5,11.2,0000.0,0010.46,0005.51,0004.96
2023-12-01 00:06:00,SystemResetWarning,0821.9,5.00,000.00,023.2,022.1,000.0,031.5,024.6,11.2,0000.0,0010.42,0005.53,0004.97
2023-12-01 00:07:00,SystemResetWarning,0822.0,5.00,000.00,023.2,022.1,000.0,031.5,024.6,11.2,0000.0,0010.48,0005.61,0004.99
2023-12-01 00:08:00,SystemResetWarning,0821.9,5.00,000.00,023.2,022.1,000.0,031.5,024.6,11.2,0000.0,0010.45,0005.60,0005.01
2023-12-01 00:09:00,SystemResetWarning,0821.9,5.00,000.00,023.2,022.1,000.0,031.5,024.5,11.2,0000.0,0010.43,0005.61,0005.02
2023-12-01 00:10:00,SystemResetWarning,0821.9,5.00,000.00,023.2,022.1,000.0,031.5,024.5,11.2,0000.0,0010.47,0005.65,0005.02
2023-12-01 00:11:00,SystemResetWarning,0822.0,5.00,000.00,023.2,022.1,000.0,031.5,024.6,11.2,0000.0,0010.44,0005.69,0005.02
2023-12-01 00:12:00,SystemResetWarning,0822.0,5.00,000.00,023.2,022.1,000.0,031.5,024.6,11.2,0000.0,0010.47,0005.68,0005.01
2023-12-01 00:13:00,SystemResetWarning,0822.0,5.00,000.00,023.2,022.1,000.0,031.5,024.6,11.2,0000.0,0010.33,0005.65,0004.99
2023-12-01 00:14:00,SystemResetWarning,0821.9,5.00,000.00,023.2,022.0,000.0,031.5,024.5,11.2,0000.0,0010.15,0005.63,0005.00
2023-12-01 00:15:00,SystemResetWarning,0822.0,5.00,000.00,023.1,022.0,000.0,031.5,024.5,11.1,0000.0,0010.03,0005.61,0005.00
2023-12-01 00:16:00,SystemResetWarning,0821.9,4.99,000.00,023.1,022.0,000.0,031.5,024.4,11.2,0000.0,0009.52,0005.63,0005.02
2023-12-01 00:17:00,SystemResetWarning,0821.9,5.01,000.00,023.1,022.0,000.0,031.5,024.4,11.1,0000.0,0010.00,0005.67,0005.03
2023-12-01 00:18:00,SystemResetWarning,0822.0,5.01,000.00,023.1,022.0,000.0,031.4,024.4,11.1,0000.0,0011.68,0005.65,0005.04
2023-12-01 00:19:00,SystemResetWarning,0822.0,5.00,000.00,023.1,022.0,000.0,031.4,024.4,11.1,0000.0,0011.60,0005.63,0005.03
2023-12-01 00:20:00,SystemResetWarning,0822.0,4.99,000.00,023.1,022.0,000.0,031.4,024.4,11.1,0000.0,0011.54,0005.63,0005.03
2023-12-01 00:21:00,SystemResetWarning,0822.0,5.00,000.00,023.1,021.9,000.0,031.4,024.4,11.1,0000.0,0012.20,0005.60,0005.05
2023-12-01 00:22:00,SystemResetWarning,0822.0,5.01,000.00,023.1,021.9,000.0,031.4,024.4,11.1,0000.0,0012.49,0005.61,0005.05
2023-12-01 00:23:00,SystemResetWarning,0822.0,5.01,000.00,023.1,021.9,000.0,031.4,024.4,11.1,0000.0,0012.66,0005.62,0005.06
2023-12-01 00:24:00,SystemResetWarning,0822.0,5.01,000.00,023.1,021.9,000.0,031.4,024.4,11.1,0000.0,0013.15,0005.61,0005.07
2023-12-01 00:25:00,SystemResetWarning,0822.0,5.00,000.00,023.1,021.9,000.0,031.4,024.4,11.1,0000.0,0013.35,0005.62,0005.07
2023-12-01 00:26:00,SystemResetWarning,0822.0,5.00,000.00,023.1,021.9,000.0,031.4,024.4,11.1,0000.0,0013.54,0005.68,0005.09
2023-12-01 00:27:00,SystemResetWarning,0822.0,4.99,000.00,023.1,021.9,000.0,031.4,024.4,11.1,0000.0,0013.31,0005.70,0005.09
2023-12-01 00:28:00,SystemResetWarning,0821.9,5.00,000.00,023.0,021.9,000.0,031.4,024.3,11.1,0000.0,0012.97,0005.71,0005.10
2023-12-01 00:29:00,SystemResetWarning,0822.0,5.01,000.00,023.0,021.9,000.0,031.3,024.4,11.1,0000.0,0011.19,0005.70,0005.10
2023-12-01 00:30:00,SystemResetWarning,0822.0,5.00,000.00,023.0,021.9,000.0,031.3,024.4,11.1,0000.0,0011.24,0005.72,0005.12
2023-12-01 00:31:00,SystemResetWarning,0822.0,5.00,000.00,023.0,021.9,000.0,031.3,024.3,11.1,0000.0,0011.32,0005.73,0005.11
2023-12-01 00:32:00,SystemResetWarning,0822.0,5.00,000.00,023.0,021.9,000.0,031.3,024.3,11.1,0000.0,0011.12,0005.73,0005.09
2023-12-01 00:33:00,SystemResetWarning,0822.0,5.00,000.00,023.0,021.9,000.0,031.3,024.3,11.0,0000.0,0011.63,0005.72,0005.09
2023-12-01 00:34:00,SystemResetWarning,0822.0,5.00,000.00,023.0,021.9,000.0,031.3,024.2,11.1,0000.0,0011.44,0005.70,0005.08
2023-12-01 00:35:00,SystemResetWarning,0821.9,5.00,000.00,023.0,021.9,000.0,031.3,024.2,11.1,0000.0,0011.68,0005.71,0005.05
2023-12-01 00:36:00,SystemResetWarning,0821.9,5.00,000.00,023.0,021.8,000.0,031.3,024.2,11.1,0000.0,0011.58,0005.64,0005.01
2023-12-01 00:37:00,SystemResetWarning,0822.0,4.99,000.00,023.0,021.8,000.0,031.3,024.2,11.1,0000.0,0011.82,0005.55,0004.96
2023-12-01 00:38:00,SystemResetWarning,0822.0,4.99,000.00,023.0,021.8,000.0,031.3,024.2,11.1,0000.0,0012.22,0005.49,0004.92
2023-12-01 00:39:00,SystemResetWarning,0821.9,5.00,000.00,022.9,021.8,000.0,031.3,024.2,11.1,0000.0,0012.13,0005.43,0004.88
2023-12-01 00:40:00,SystemResetWarning,0822.0,5.00,000.00,022.9,021.8,000.0,031.3,024.2,11.1,0000.0,0012.10,0005.40,0004.85
2023-12-01 00:41:00,SystemResetWarning,0821.9,5.00,000.00,022.9,021.8,000.0,031.3,024.1,11.1,0000.0,0012.03,0005.33,0004.80
2023-12-01 00:42:00,SystemResetWarning,0821.9,5.01,000.00,022.9,021.8,000.0,031.3,024.1,11.1,0000.0,0011.95,0005.32,0004.77
2023-12-01 00:43:00,SystemResetWarning,0821.9,5.00,000.00,022.9,021.8,000.0,031.2,024.1,11.1,0000.0,0011.59,0005.29,0004.76
2023-12-01 00:44:00,SystemResetWarning,0821.9,5.00,000.00,022.8,021.7,000.0,031.2,024.0,11.1,0000.0,0010.78,0005.26,0004.74
2023-12-01 00:45:00,SystemResetWarning,0821.9,5.00,000.00,022.8,021.7,000.0,031.2,024.0,11.1,0000.0,0010.68,0005.23,0004.73
2023-12-01 00:46:00,SystemResetWarning,0822.0,5.00,000.00,022.8,021.7,000.0,031.2,024.1,11.1,0000.0,0010.11,0005.20,0004.72
2023-12-01 00:47:00,SystemResetWarning,0821.9,5.00,000.00,022.8,021.7,000.0,031.2,024.1,11.1,0000.0,0010.33,0005.24,0004.73
2023-12-01 00:48:00,SystemResetWarning,0821.9,5.00,000.00,022.8,021.7,000.0,031.2,024.0,11.1,0000.0,0010.43,0005.32,0004.72
2023-12-01 00:49:00,SystemResetWarning,0821.9,5.00,000.00,022.8,021.6,000.0,031.2,023.9,11.1,0000.0,0010.07,0005.36,0004.74
2023-12-01 00:50:00,SystemResetWarning,0821.9,5.00,000.00,022.7,021.6,000.0,031.1,023.9,11.1,0000.0,0010.19,0005.39,0004.75
2023-12-01 00:51:00,SystemResetWarning,0821.9,5.00,000.00,022.7,021.6,000.0,031.1,023.9,11.1,0000.0,0010.24,0005.41,0004.76
2023-12-01 00:52:00,SystemResetWarning,0821.9,5.00,000.00,022.7,021.6,000.0,031.1,023.9,11.1,0000.0,0010.35,0005.43,0004.78
2023-12-01 00:53:00,SystemResetWarning,0822.0,5.01,000.00,022.7,021.6,000.0,031.1,023.9,11.1,0000.0,0010.99,0005.40,0004.79
2023-12-01 00:54:00,SystemResetWarning,0822.0,5.01,000.00,022.7,021.6,000.0,031.1,023.9,11.1,0000.0,0010.96,0005.40,0004.81
2023-12-01 00:55:00,SystemResetWarning,0822.0,5.00,000.00,022.7,021.5,000.0,031.1,023.8,11.1,0000.0,0011.54,0005.40,0004.80
2023-12-01 00:56:00,SystemResetWarning,0822.0,4.99,000.00,022.6,021.5,000.0,031.1,023.8,11.1,0000.0,0011.63,0005.44,0004.80
2023-12-01 00:57:00,SystemResetWarning,0822.0,5.00,000.00,022.6,021.5,000.0,031.0,023.8,11.2,0000.0,0011.69,0005.42,0004.80
2023-12-01 00:58:00,SystemResetWarning,0822.0,4.99,000.00,022.6,021.4,000.0,031.0,023.8,11.2,0000.0,0012.60,0005.39,0004.79
2023-12-01 00:59:00,SystemResetWarning,0822.0,5.00,000.00,022.6,021.4,000.0,031.0,023.7,11.2,0000.0,0012.18,0005.37,0004.79
